Find Starlink 32100

NORAD ID: 59686 Int'l Des: 2024-086 Owner: SPXS Country: US Constellation: starlink operational
LEOCIRCULAR

当前视图

正在加载3D地球...

About Starlink 32100

Starlink 32100 (NORAD 59686) is a starlink constellation satellite (v2 mini) launched May 8, 2024 by SPXS of US. It operates in LEO, CIRCULAR orbit with a mass of 730.00 kg.

关于 Starlink 32100

正在加载描述...

即将过境

Passes for default location (London). Set your location on the main map for personalized predictions.

高度历史

Loading altitude history...

两行轨道根数

1 59686U 24086E 26170.13675669 -.00000569 00000-0 -11153-4 0 9990
2 59686 43.0018 188.8715 0001296 271.5905 88.4798 15.27573057119835
Epoch: Jun 19, 2026 • Age: 22 hours

当前状态

高度 484.6 km
速度 7.62 km/s
星下点 -11.00°S, 114.24°W
发射日期 May 8, 2024
运行时间 2.1 years
类型 internet

技术详情

分类 Payload
质量 730.00 kg
干质量 700.00 kg
总质量 730.00 kg
长度 0.30 m
直径 4.10 m
跨度 29.00 m
形状 Box + pan
制造商 SPXS
平台类型 Starlink V2M
阶段状态 In Orbit
所有者/国家 SPXS/US

Most Searched